Location: Devore Heights
(34.2372°N, 117.4156°W)
Time: 22:21:57
(UTC+00:00)

Transit 4A - Pass Details

Date: 21 September 2024
Orbit: 864 x 978 km, 66.8° (Epoch: 13 October)

Event Time Altitude Azimuth Distance (km) Brightness Sun altitude
Rises 07:13:30 0° 150° (SSE) 3,434 - -54.6°
Reaches altitude 10° 07:18:15 10° 115° (ESE) 2,518 - -54.8°
Maximum altitude 07:19:35 11° 101° (E) 2,468 - -54.9°
Drops below altitude 10° 07:20:55 10° 88° (E) 2,532 - -54.9°
Sets 07:25:45 0° 53° (NE) 3,505 - -55.1°
